Time,TemperatureF,DewpointF,PressureIn,WindDirection,WindDirectionDegrees,WindSpeedMPH,WindSpeedGustMPH,Humidity,HourlyPrecipIn,Conditions,Clouds,dailyrainin,SolarRadiationWatts/m^2,SoftwareType,DateUTC
2013-05-12 00:02:00,-999.0,-99.9,-100.00,NW,314,7.0,17.0,75,0.00,,,0.25,0.000000,,2013-05-12 04:02:00,
2013-05-12 00:33:00,35.0,32.0,-100.00,NW,321,9.0,20.0,89,0.01,,,0.26,0.000000,,2013-05-12 04:33:00,
2013-05-12 00:43:00,35.0,32.0,-100.00,NW,321,9.0,20.0,89,0.01,,,0.26,0.000000,,2013-05-12 04:43:00,
2013-05-12 00:52:00,35.0,32.0,-100.00,NW,321,9.0,20.0,89,0.01,,,0.26,0.000000,,2013-05-12 04:52:00,
2013-05-12 01:02:00,35.0,32.0,-100.00,NW,321,9.0,20.0,89,0.01,,,0.26,0.000000,,2013-05-12 05:02:00,
2013-05-12 01:22:00,35.0,33.0,-100.00,NW,317,7.0,14.0,91,0.01,,,0.27,0.000000,,2013-05-12 05:22:00,
2013-05-12 01:32:00,35.0,33.0,-100.00,NW,317,7.0,14.0,91,0.01,,,0.27,0.000000,,2013-05-12 05:32:00,
2013-05-12 01:42:00,35.0,33.0,-100.00,NW,317,7.0,14.0,91,0.01,,,0.27,0.000000,,2013-05-12 05:42:00,
2013-05-12 01:52:00,35.0,33.0,-100.00,NW,317,7.0,14.0,91,0.01,,,0.27,0.000000,,2013-05-12 05:52:00,
2013-05-12 02:01:00,35.0,33.0,-100.00,NW,317,7.0,14.0,91,0.01,,,0.27,0.000000,,2013-05-12 06:01:00,
2013-05-12 02:32:00,34.0,30.0,-100.00,NW,317,9.0,18.0,85,0.00,,,0.27,0.000000,,2013-05-12 06:32:00,
2013-05-12 02:42:00,34.0,30.0,-100.00,NW,317,9.0,18.0,85,0.00,,,0.27,0.000000,,2013-05-12 06:42:00,
2013-05-12 02:52:00,34.0,30.0,-100.00,NW,317,9.0,18.0,85,0.00,,,0.27,0.000000,,2013-05-12 06:52:00,
2013-05-12 03:01:00,34.0,30.0,-100.00,NW,317,9.0,18.0,85,0.00,,,0.27,0.000000,,2013-05-12 07:01:00,
2013-05-12 03:32:00,34.0,32.0,-100.00,NW,319,8.0,17.0,91,0.00,,,0.27,0.000000,,2013-05-12 07:32:00,
2013-05-12 03:42:00,34.0,32.0,-100.00,NW,319,8.0,17.0,91,0.00,,,0.27,0.000000,,2013-05-12 07:42:00,
2013-05-12 03:52:00,34.0,32.0,-100.00,NW,319,8.0,17.0,91,0.00,,,0.27,0.000000,,2013-05-12 07:52:00,
2013-05-12 04:02:00,34.0,32.0,-100.00,NW,319,8.0,17.0,91,0.00,,,0.27,0.000000,,2013-05-12 08:02:00,
2013-05-12 04:32:00,34.0,32.0,-100.00,NNW,328,8.0,17.0,92,0.01,,,0.28,0.000000,,2013-05-12 08:32:00,
2013-05-12 04:42:00,34.0,32.0,-100.00,NNW,328,8.0,17.0,92,0.01,,,0.28,0.000000,,2013-05-12 08:42:00,
2013-05-12 04:53:00,34.0,32.0,-100.00,NNW,328,8.0,17.0,92,0.01,,,0.28,0.000000,,2013-05-12 08:53:00,
2013-05-12 05:01:00,34.0,32.0,-100.00,NNW,328,8.0,17.0,92,0.01,,,0.28,0.000000,,2013-05-12 09:01:00,
2013-05-12 05:03:00,33.0,31.0,-100.00,NNW,327,7.0,18.0,92,0.01,,,0.29,0.000000,,2013-05-12 09:03:00,
2013-05-12 05:21:00,33.0,31.0,-100.00,NNW,327,7.0,18.0,92,0.01,,,0.29,0.000000,,2013-05-12 09:21:00,
2013-05-12 05:33:00,33.0,31.0,-100.00,NNW,327,7.0,18.0,92,0.01,,,0.29,0.000000,,2013-05-12 09:33:00,
2013-05-12 05:43:00,33.0,31.0,-100.00,NNW,327,7.0,18.0,92,0.01,,,0.29,0.000000,,2013-05-12 09:43:00,
2013-05-12 05:53:00,33.0,31.0,-100.00,NNW,327,7.0,18.0,92,0.01,,,0.29,0.000000,,2013-05-12 09:53:00,
2013-05-12 06:33:00,33.0,31.0,-100.00,NNW,329,8.0,16.0,92,0.00,,,0.29,0.000000,,2013-05-12 10:33:00,
2013-05-12 06:42:00,33.0,31.0,-100.00,NNW,329,8.0,16.0,92,0.00,,,0.29,0.000000,,2013-05-12 10:42:00,
2013-05-12 06:52:00,33.0,31.0,-100.00,NNW,329,8.0,16.0,92,0.00,,,0.29,0.000000,,2013-05-12 10:52:00,
2013-05-12 07:02:00,33.0,31.0,-100.00,NNW,329,8.0,16.0,92,0.00,,,0.29,0.000000,,2013-05-12 11:02:00,
2013-05-12 07:22:00,32.0,29.0,-100.00,NNW,331,9.0,19.0,88,0.00,,,0.29,5.000000,,2013-05-12 11:22:00,
2013-05-12 07:32:00,32.0,29.0,-100.00,NNW,331,9.0,19.0,88,0.00,,,0.29,5.000000,,2013-05-12 11:32:00,
2013-05-12 07:42:00,32.0,29.0,-100.00,NNW,331,9.0,19.0,88,0.00,,,0.29,5.000000,,2013-05-12 11:42:00,
2013-05-12 07:52:00,32.0,29.0,-100.00,NNW,331,9.0,19.0,88,0.00,,,0.29,5.000000,,2013-05-12 11:52:00,
2013-05-12 08:01:00,32.0,29.0,-100.00,NNW,331,9.0,19.0,88,0.00,,,0.29,5.000000,,2013-05-12 12:01:00,
2013-05-12 08:22:00,32.0,26.0,-100.00,NNW,330,10.0,22.0,79,0.00,,,0.27,19.000000,,2013-05-12 12:22:00,
2013-05-12 08:32:00,32.0,26.0,-100.00,NNW,330,10.0,22.0,79,0.00,,,0.27,19.000000,,2013-05-12 12:32:00,
2013-05-12 08:42:00,32.0,26.0,-100.00,NNW,330,10.0,22.0,79,0.00,,,0.27,19.000000,,2013-05-12 12:42:00,
2013-05-12 08:52:00,32.0,26.0,-100.00,NNW,330,10.0,22.0,79,0.00,,,0.27,19.000000,,2013-05-12 12:52:00,
2013-05-12 09:01:00,32.0,26.0,-100.00,NNW,330,10.0,22.0,79,0.00,,,0.27,19.000000,,2013-05-12 13:01:00,
2013-05-12 09:32:00,32.0,26.0,-100.00,NW,319,8.0,19.0,77,0.00,,,0.25,55.000000,,2013-05-12 13:32:00,
2013-05-12 09:42:00,32.0,26.0,-100.00,NW,319,8.0,19.0,77,0.00,,,0.25,55.000000,,2013-05-12 13:42:00,
2013-05-12 09:52:00,32.0,26.0,-100.00,NW,319,8.0,19.0,77,0.00,,,0.25,55.000000,,2013-05-12 13:52:00,
2013-05-12 10:01:00,32.0,26.0,-100.00,NW,319,8.0,19.0,77,0.00,,,0.25,55.000000,,2013-05-12 14:01:00,
2013-05-12 10:21:00,33.0,28.0,-100.00,NW,320,8.0,15.0,80,0.00,,,0.20,121.000000,,2013-05-12 14:21:00,
2013-05-12 10:32:00,33.0,28.0,-100.00,NW,320,8.0,15.0,80,0.00,,,0.20,121.000000,,2013-05-12 14:32:00,
2013-05-12 10:42:00,33.0,28.0,-100.00,NW,320,8.0,15.0,80,0.00,,,0.20,121.000000,,2013-05-12 14:42:00,
2013-05-12 10:52:00,33.0,28.0,-100.00,NW,320,8.0,15.0,80,0.00,,,0.20,121.000000,,2013-05-12 14:52:00,
2013-05-12 11:01:00,33.0,28.0,-100.00,NW,320,8.0,15.0,80,0.00,,,0.20,121.000000,,2013-05-12 15:01:00,
2013-05-12 11:34:00,34.0,25.0,-100.00,NW,324,11.0,22.0,70,0.01,,,0.12,287.000000,,2013-05-12 15:34:00,
2013-05-12 11:42:00,34.0,25.0,-100.00,NW,324,11.0,22.0,70,0.01,,,0.12,287.000000,,2013-05-12 15:42:00,
2013-05-12 11:53:00,34.0,25.0,-100.00,NW,324,11.0,22.0,70,0.01,,,0.12,287.000000,,2013-05-12 15:53:00,
2013-05-12 12:02:00,34.0,25.0,-100.00,NW,324,11.0,22.0,70,0.01,,,0.12,287.000000,,2013-05-12 16:02:00,
2013-05-12 12:23:00,35.0,25.0,-100.00,NNW,337,10.0,26.0,67,0.00,,,0.07,226.000000,,2013-05-12 16:23:00,
2013-05-12 12:33:00,35.0,25.0,-100.00,NNW,337,10.0,26.0,67,0.00,,,0.07,226.000000,,2013-05-12 16:33:00,
2013-05-12 12:42:00,35.0,25.0,-100.00,NNW,337,10.0,26.0,67,0.00,,,0.07,226.000000,,2013-05-12 16:42:00,
2013-05-12 12:53:00,35.0,25.0,-100.00,NNW,337,10.0,26.0,67,0.00,,,0.07,226.000000,,2013-05-12 16:53:00,
2013-05-12 13:02:00,35.0,25.0,-100.00,NNW,337,10.0,26.0,67,0.00,,,0.07,226.000000,,2013-05-12 17:02:00,
2013-05-12 13:32:00,36.0,25.0,-100.00,NNW,331,8.0,22.0,65,0.00,,,-99.99,257.000000,,2013-05-12 17:32:00,
2013-05-12 13:42:00,36.0,25.0,-100.00,NNW,331,8.0,22.0,65,0.00,,,-99.99,257.000000,,2013-05-12 17:42:00,
2013-05-12 13:53:00,36.0,25.0,-100.00,NNW,331,8.0,22.0,65,0.00,,,-99.99,257.000000,,2013-05-12 17:53:00,
2013-05-12 14:01:00,36.0,25.0,-100.00,NNW,331,8.0,22.0,65,0.00,,,-99.99,257.000000,,2013-05-12 18:01:00,
2013-05-12 14:22:00,36.0,25.0,-100.00,NNW,330,9.0,20.0,64,0.00,,,0.05,284.000000,,2013-05-12 18:22:00,
2013-05-12 14:32:00,36.0,25.0,-100.00,NNW,330,9.0,20.0,64,0.00,,,0.05,284.000000,,2013-05-12 18:32:00,
2013-05-12 14:42:00,36.0,25.0,-100.00,NNW,330,9.0,20.0,64,0.00,,,0.05,284.000000,,2013-05-12 18:42:00,
2013-05-12 14:52:00,36.0,25.0,-100.00,NNW,330,9.0,20.0,64,0.00,,,0.05,284.000000,,2013-05-12 18:52:00,
2013-05-12 15:01:00,36.0,25.0,-100.00,NNW,330,9.0,20.0,64,0.00,,,0.05,284.000000,,2013-05-12 19:01:00,
2013-05-12 15:22:00,38.0,26.0,-100.00,NNW,342,9.0,21.0,61,0.00,,,0.05,363.000000,,2013-05-12 19:22:00,
2013-05-12 15:32:00,38.0,26.0,-100.00,NNW,342,9.0,21.0,61,0.00,,,0.05,363.000000,,2013-05-12 19:32:00,
2013-05-12 15:42:00,38.0,26.0,-100.00,NNW,342,9.0,21.0,61,0.00,,,0.05,363.000000,,2013-05-12 19:42:00,
2013-05-12 15:52:00,38.0,26.0,-100.00,NNW,342,9.0,21.0,61,0.00,,,0.05,363.000000,,2013-05-12 19:52:00,
2013-05-12 16:02:00,38.0,26.0,-100.00,NNW,342,9.0,21.0,61,0.00,,,0.05,363.000000,,2013-05-12 20:02:00,
2013-05-12 16:32:00,36.0,24.0,-100.00,North,356,7.0,19.0,62,0.00,,,0.05,282.000000,,2013-05-12 20:32:00,
2013-05-12 16:42:00,36.0,24.0,-100.00,North,356,7.0,19.0,62,0.00,,,0.05,282.000000,,2013-05-12 20:42:00,
2013-05-12 16:52:00,36.0,24.0,-100.00,North,356,7.0,19.0,62,0.00,,,0.05,282.000000,,2013-05-12 20:52:00,
2013-05-12 17:01:00,36.0,24.0,-100.00,North,356,7.0,19.0,62,0.00,,,0.05,282.000000,,2013-05-12 21:01:00,
2013-05-12 17:22:00,38.0,25.0,-100.00,North,357,8.0,18.0,58,0.00,,,0.05,324.000000,,2013-05-12 21:22:00,
2013-05-12 17:33:00,38.0,25.0,-100.00,North,357,8.0,18.0,58,0.00,,,0.05,324.000000,,2013-05-12 21:33:00,
2013-05-12 17:42:00,38.0,25.0,-100.00,North,357,8.0,18.0,58,0.00,,,0.05,324.000000,,2013-05-12 21:42:00,
2013-05-12 17:53:00,38.0,25.0,-100.00,North,357,8.0,18.0,58,0.00,,,0.05,324.000000,,2013-05-12 21:53:00,
2013-05-12 18:02:00,38.0,25.0,-100.00,North,357,8.0,18.0,58,0.00,,,0.05,324.000000,,2013-05-12 22:02:00,
2013-05-12 18:23:00,41.0,23.0,-100.00,North,353,9.0,19.0,49,0.00,,,0.05,632.000000,,2013-05-12 22:23:00,
2013-05-12 18:33:00,41.0,23.0,-100.00,North,353,9.0,19.0,49,0.00,,,0.05,632.000000,,2013-05-12 22:33:00,
2013-05-12 18:42:00,41.0,23.0,-100.00,North,353,9.0,19.0,49,0.00,,,0.05,632.000000,,2013-05-12 22:42:00,
2013-05-12 18:52:00,41.0,23.0,-100.00,North,353,9.0,19.0,49,0.00,,,0.05,632.000000,,2013-05-12 22:52:00,
2013-05-12 19:02:00,41.0,23.0,-100.00,North,353,9.0,19.0,49,0.00,,,0.05,632.000000,,2013-05-12 23:02:00,
2013-05-12 19:22:00,41.0,23.0,-100.00,NNW,336,9.0,20.0,48,0.00,,,0.05,432.000000,,2013-05-12 23:22:00,
2013-05-12 19:32:00,41.0,23.0,-100.00,NNW,336,9.0,20.0,48,0.00,,,0.05,432.000000,,2013-05-12 23:32:00,
2013-05-12 19:42:00,41.0,23.0,-100.00,NNW,336,9.0,20.0,48,0.00,,,0.05,432.000000,,2013-05-12 23:42:00,
2013-05-12 19:52:00,41.0,23.0,-100.00,NNW,336,9.0,20.0,48,0.00,,,0.05,432.000000,,2013-05-12 23:52:00,
2013-05-12 20:01:00,41.0,23.0,-100.00,NNW,336,9.0,20.0,48,0.00,,,0.05,432.000000,,2013-05-13 00:01:00,
2013-05-12 20:32:00,41.0,23.0,-100.00,NNW,331,7.0,16.0,48,0.00,,,0.05,225.000000,,2013-05-13 00:32:00,
2013-05-12 20:42:00,41.0,23.0,-100.00,NNW,331,7.0,16.0,48,0.00,,,0.05,225.000000,,2013-05-13 00:42:00,
2013-05-12 20:52:00,41.0,23.0,-100.00,NNW,331,7.0,16.0,48,0.00,,,0.05,225.000000,,2013-05-13 00:52:00,
2013-05-12 21:01:00,41.0,23.0,-100.00,NNW,331,7.0,16.0,48,0.00,,,0.05,225.000000,,2013-05-13 01:01:00,
2013-05-12 21:22:00,37.0,19.0,-100.00,NNW,343,3.0,13.0,48,0.00,,,0.05,40.000000,,2013-05-13 01:22:00,
2013-05-12 21:32:00,37.0,19.0,-100.00,NNW,343,3.0,13.0,48,0.00,,,0.05,40.000000,,2013-05-13 01:32:00,
2013-05-12 21:42:00,37.0,19.0,-100.00,NNW,343,3.0,13.0,48,0.00,,,0.05,40.000000,,2013-05-13 01:42:00,
2013-05-12 21:52:00,37.0,19.0,-100.00,NNW,343,3.0,13.0,48,0.00,,,0.05,40.000000,,2013-05-13 01:52:00,
2013-05-12 22:01:00,37.0,19.0,-100.00,NNW,343,3.0,13.0,48,0.00,,,0.05,40.000000,,2013-05-13 02:01:00,
2013-05-12 22:21:00,34.0,21.0,-100.00,North,1,3.0,5.0,58,0.00,,,0.05,2.000000,,2013-05-13 02:21:00,
2013-05-12 22:32:00,34.0,21.0,-100.00,North,1,3.0,5.0,58,0.00,,,0.05,2.000000,,2013-05-13 02:32:00,
2013-05-12 22:42:00,34.0,21.0,-100.00,North,1,3.0,5.0,58,0.00,,,0.05,2.000000,,2013-05-13 02:42:00,
2013-05-12 22:52:00,34.0,21.0,-100.00,North,1,3.0,5.0,58,0.00,,,0.05,2.000000,,2013-05-13 02:52:00,
2013-05-12 23:02:00,34.0,21.0,-100.00,North,1,3.0,5.0,58,0.00,,,0.05,2.000000,,2013-05-13 03:02:00,
2013-05-12 23:22:00,31.0,21.0,-100.00,NW,320,2.0,5.0,66,0.00,,,0.05,0.000000,,2013-05-13 03:22:00,
2013-05-12 23:33:00,31.0,21.0,-100.00,NW,320,2.0,5.0,66,0.00,,,0.05,0.000000,,2013-05-13 03:33:00,
2013-05-12 23:42:00,31.0,21.0,-100.00,NW,320,2.0,5.0,66,0.00,,,0.05,0.000000,,2013-05-13 03:42:00,
2013-05-12 23:53:00,31.0,21.0,-100.00,NW,320,2.0,5.0,66,0.00,,,0.05,0.000000,,2013-05-13 03:53:00,